Flight Track Log - Related Links

Times and Time Zones

All times are in EDT time to prevent confusion due to time zone crossing. See the OPT332 flight status page for this flight to view local times or setup timezone preferences in your user account.

Time Position Orientation Groundspeed Altitude Reporting Facility
EDT Latitude Longitude Course Direction KTS MPH feet Rate Location/Type
12:22AM 37.7350 -122.2630 277° West 172 198 3,700  Level FlightAware ADS-B
12:22AM 37.7369 -122.2700 289° West 185 213 3,900 2,000 Climbing FlightAware ADS-B
12:22AM 37.7412 -122.2900 285° West 217 250 4,500 2,550 Climbing FlightAware ADS-B
12:23AM 37.7372 -122.3190 260° West 217 250 5,600 2,690 Climbing FlightAware ADS-B
12:23AM 37.7330 -122.3240 223° Southwest 240 276 5,800 2,400 Climbing FlightAware ADS-B
12:23AM 37.7292 -122.3280 220° Southwest 243 280 6,000 3,195 Climbing FlightAware ADS-B
12:24AM 37.6524 -122.3710 204° Southwest 260 299 9,900 3,204 Climbing FlightAware ADS-B
12:24AM 37.6178 -122.3910 205° Southwest 268 308 11,500 3,200 Climbing FlightAware ADS-B
12:25AM 37.5998 -122.3990 199° South 270 311 12,300 3,273 Climbing FlightAware ADS-B
12:25AM 37.5784 -122.3940 170° South 270 311 13,300 2,824 Climbing FlightAware ADS-B
12:26AM 37.5122 -122.3230 140° Southeast 291 335 16,300 2,811 Climbing FlightAware ADS-B
12:27AM 37.4653 -122.2740 140° Southeast 292 336 18,500 2,585 Climbing FlightAware ADS-B
12:28AM 37.3733 -122.1770 140° Southeast 320 368 21,900 2,319 Climbing FlightAware ADS-B
12:29AM 37.3331 -122.1340 140° Southeast 328 377 23,100 2,095 Climbing FlightAware ADS-B
12:29AM 37.2969 -122.0960 140° Southeast 336 387 24,100 1,806 Climbing FlightAware ADS-B
12:31AM 37.2181 -122.0130 140° Southeast 349 402 26,200 1,981 Climbing FlightAware ADS-B
12:31AM 37.1668 -121.9600 141° Southeast 352 405 27,600 2,160 Climbing FlightAware ADS-B
12:33AM 37.0509 -121.8390 140° Southeast 361 415 30,700 1,659 Climbing FlightAware ADS-B
12:33AM 37.0085 -121.7940 140° Southeast 375 432 31,000 119 Climbing FlightAware ADS-B
12:35AM 36.8313 -121.6110 140° Southeast 432 497 31,000  Level FlightAware ADS-B
12:36AM 36.7674 -121.5450 140° Southeast 432 497 31,000  Level FlightAware ADS-B
12:38AM 36.6875 -121.4620 140° Southeast 434 499 31,000  Level FlightAware ADS-B
12:38AM 36.5383 -121.3150 140° Southeast 435 501 31,000  Level Los Angeles Center
12:40AM 36.4447 -121.2203 141° Southeast 436 502 31,000  Level Los Angeles Center
12:40AM 36.3517 -121.1225 140° Southeast 437 503 31,000  Level Oakland Center
12:41AM 36.2561 -121.0275 141° Southeast 440 506 31,000  Level Oakland Center
12:42AM 36.1622 -120.9300 140° Southeast 441 507 31,000  Level Oakland Center
12:43AM 36.0678 -120.8331 140° Southeast 441 507 31,000  Level Oakland Center
12:45AM 35.9725 -120.7378 141° Southeast 441 507 31,000  Level Oakland Center
12:46AM 35.8778 -120.6422 141° Southeast 439 505 31,000  Level Oakland Center
12:47AM 35.7822 -120.5469 141° Southeast 441 507 31,000  Level Oakland Center
12:48AM 35.6658 -120.4297 141° Southeast 446 513 31,000  Level Oakland Center
12:49AM 35.5608 -120.3261 141° Southeast 461 531 31,000  Level Los Angeles Center
12:50AM 35.4586 -120.2267 142° Southeast 466 536 31,000  Level Los Angeles Center
12:51AM 35.3344 -120.1014 141° Southeast 472 543 31,000  Level Los Angeles Center
12:52AM 35.2314 -120.0003 141° Southeast 472 543 31,000 -545 Level Los Angeles Center
12:53AM 35.1292 -119.9003 141° Southeast 471 542 29,900 -1,426 Descending Los Angeles Center
12:54AM 35.0447 -119.8003 136° Southeast 433 498 28,100 -1,835 Descending Los Angeles Center
12:55AM 34.9642 -119.6908 132° Southeast 430 495 26,200 -2,182 Descending Los Angeles Center
12:56AM 34.8819 -119.5811 132° Southeast 438 504 23,700 -2,430 Descending Los Angeles Center
12:57AM 34.8044 -119.4772 132° Southeast 423 487 21,300 -2,331 Descending Los Angeles Center
12:58AM 34.7275 -119.3761 133° Southeast 413 475 19,000 -2,331 Descending Los Angeles Center
12:59AM 34.6544 -119.2756 131° Southeast 401 461 16,600 -2,281 Descending Los Angeles Center
01:00AM 34.5767 -119.1725 132° Southeast 385 443 14,400 -2,115 Descending Los Angeles Center
01:01AM 34.5072 -119.0797 132° Southeast 375 432 12,300 -1,983 Descending Los Angeles Center
01:02AM 34.4453 -118.9978 132° Southeast 326 375 10,400 -1,934 Descending Los Angeles Center
01:03AM 34.4250 -118.9136 106° East 277 319 8,400 -1,686 Descending Los Angeles Center
01:04AM 34.4381 -118.8194 80° East 279 321 7,000 -1,131 Descending Los Angeles Center
01:05AM 34.4517 -118.7281 80° East 272 313 6,100 -893 Descending Los Angeles Center
01:06AM 34.4525 -118.6508 89° East 227 261 5,200 -550 Descending Los Angeles Center
01:07AM 34.4494 -118.5794 93° East 211 243 5,000 -99 Descending Los Angeles Center
01:08AM 34.4236 -118.5247 120° Southeast 200 230 5,000 -149 Level Los Angeles Center
01:09AM 34.3758 -118.5064 162° South 181 208 4,700 -679 Descending Los Angeles Center
01:10AM 34.3333 -118.5000 173° South 151 174 3,800 -971 Descending Southern California TRACON
01:11AM 34.3000 -118.5000 180° South 126 145 3,000 -842 Descending Southern California TRACON
01:12AM 34.2667 -118.5000 180° South 135 155 2,200 -895 Descending Southern California TRACON
01:13AM 34.2333 -118.5000 180° South 136 157 1,300 -900 Descending Southern California TRACON
01:15AM 34.2098 -118.4900 180° South  Level Estimated
01:22AM 34.2098 -118.4900 180° South  Level Estimated

Login

Don't have an account? Register now (free) for customized features, flight alerts, and more!